[[{"header":{"parameterUnit":"m.s-1","parameterCategory":1,"la1":30.2992,"la2":30.254,"lo1":-89.0895,"lo2":-89.0443,"dy":0.0025,"dx":0.0025,"nx":19,"ny":19,"refTime":"2026-04-07T09:00:00:Z","depth":0,"parameterNumber":2,"parameterNumberName":"U-component_of_WINDS"},"data":[0,0,0,-4.3335,-4.3335,-4.3325,-4.3325,-4.3326,-4.3326,0,0,0,0,0,0,0,0,0,0,0,-4.3345,-4.3345,-4.3335,-4.3335,-4.3325,-4.3325,-4.3326,-4.3326,0,0,0,0,0,0,0,0,0,0,0,-4.3345,-4.3345,-4.3346,-4.3335,-4.3325,-4.3325,-4.3326,-4.3328,0,0,0,0,0,0,0,0,0,0,-4.3336,-4.3353,-4.3345,-4.3346,-4.3335,-4.3325,-4.3325,-4.3328,-4.3328,-4.3336,0,-4.3344,0,-4.3335,-4.3327,-4.3327,0,0,0,-4.3329,-4.3353,-4.3343,-4.3346,-4.3335,-4.3325,-4.3328,-4.3328,-4.3328,-4.3336,-4.3344,-4.3344,-4.3335,-4.3327,-4.3327,-4.3389,-4.3389,0,0,-4.333,-4.3347,-4.3343,-4.3343,-4.3345,-4.3328,-4.3327,-4.3328,-4.3338,-4.3344,-4.3343,-4.3335,-4.3327,-4.3327,-4.3388,-4.3389,0,0,0,-4.3335,-4.3348,-4.3338,-4.3344,-4.3341,-4.3328,-4.3327,-4.3338,-4.3333,-4.3343,-4.3335,-4.3327,-4.3327,-4.3388,-4.3388,-4.3433,0,0,0,-4.3335,-4.3351,-4.3339,-4.335,-4.3341,-4.3339,-4.3338,-4.3333,-4.3333,-4.3335,-4.3327,-4.3327,-4.3387,-4.3388,-4.3431,-4.3452,0,0,0,-4.3343,-4.3352,-4.3353,-4.3351,-4.3347,-4.3339,-4.3334,-4.3333,-4.3328,-4.3327,-4.3327,-4.3387,-4.3388,-4.3429,-4.3448,-4.3474,0,0,0,-4.3357,-4.3393,-4.3354,-4.3391,-4.3347,-4.3366,-4.3334,-4.3347,-4.3351,-4.3327,-4.3387,-4.3388,-4.3428,-4.3446,-4.3472,-4.35,-4.3513,0,0,-4.3412,-4.34,-4.342,-4.3385,-4.3416,-4.3366,-4.3404,-4.3391,-4.3374,-4.3385,-4.3386,-4.3432,-4.3448,-4.3474,-4.3579,-4.359,0,0,0,-4.3444,-4.3459,-4.3463,-4.3468,-4.3458,-4.3453,-4.3432,-4.3428,-4.3436,-4.3383,-4.3447,-4.3456,-4.3471,-4.3483,-4.3492,-4.3504,-4.3395,-4.3395,-4.3394,-4.3547,-4.3525,-4.3557,-4.3533,-4.3539,-4.3517,-4.352,-4.351,-4.3485,-4.3501,-4.3504,-4.3571,-4.3586,-4.3593,-4.3606,-4.3516,-4.3517,-4.3517,-4.3517,-4.3627,-4.3645,-4.3611,-4.3631,-4.3607,-4.3623,-4.3605,-4.3587,-4.3599,-4.3566,-4.3578,-4.3545,-4.3605,-4.3615,-4.352,-4.3519,-4.3519,-4.3519,-4.3519,-4.3693,-4.3697,-4.3691,-4.3697,-4.3704,-4.3678,-4.3692,-4.3669,-4.3648,-4.366,-4.3662,-4.3661,-4.3658,-4.3662,-4.3662,-4.3663,-4.3663,-4.3663,-4.3663,-4.3764,-4.3756,-4.377,-4.3764,-4.3764,-4.3763,-4.3742,-4.3743,-4.3738,-4.372,-4.372,-4.3695,-4.3615,-4.3596,-4.3667,-4.3666,-4.3666,-4.3665,-4.3665,-4.3855,-4.3831,-4.3853,-4.3853,-4.3845,-4.3855,-4.3825,-4.3829,-4.3825,-4.3833,-4.3806,-4.375,-4.3736,-4.3729,-4.3713,-4.3809,-4.3809,-4.3809,-4.3809,-4.3911,-4.3902,-4.392,-4.3923,-4.3923,-4.39,-4.3926,-4.3912,-4.3892,-4.389,-4.3872,-4.3849,-4.3843,-4.3833,-4.3823,-4.3808,-4.3927,-4.3927,-4.3927,-4.3966,-4.3956,-4.3983,-4.3963,-4.3955,-4.395,-4.3975,-4.3981,-4.3954,-4.3931,-4.3887,-4.3882,-4.3845,-4.3833,-4.381,-4.3796,-4.3768,0,0]},{"header":{"parameterUnit":"m.s-1","parameterCategory":1,"la1":30.2992,"la2":30.254,"lo1":-89.0895,"lo2":-89.0443,"dy":0.0025,"dx":0.0025,"nx":19,"ny":19,"refTime":"2026-04-07T09:00:00:Z","depth":0,"parameterNumber":3,"parameterNumberName":"V-component_of_WINDS"},"data":[0,0,0,-1.9624,-1.9625,-1.9659,-1.9659,-1.971,-1.971,0,0,0,0,0,0,0,0,0,0,0,-1.9618,-1.9618,-1.9624,-1.9625,-1.9659,-1.9659,-1.9709,-1.971,0,0,0,0,0,0,0,0,0,0,0,-1.9618,-1.9618,-1.9619,-1.9625,-1.9659,-1.9659,-1.9709,-1.9681,0,0,0,0,0,0,0,0,0,0,-1.9646,-1.9645,-1.9618,-1.9619,-1.9625,-1.9659,-1.9659,-1.968,-1.9683,-1.9697,0,-1.971,0,-1.9711,-1.9714,-1.9714,0,0,0,-1.9622,-1.9642,-1.9648,-1.9619,-1.9626,-1.9659,-1.9643,-1.9681,-1.9685,-1.9701,-1.9711,-1.9713,-1.9712,-1.9714,-1.9714,-1.9807,-1.9808,0,0,-1.962,-1.9626,-1.9645,-1.9651,-1.9646,-1.9642,-1.9644,-1.9683,-1.9695,-1.9711,-1.9714,-1.9713,-1.9715,-1.9715,-1.9806,-1.9807,0,0,0,-1.9616,-1.9625,-1.9629,-1.9649,-1.9654,-1.9643,-1.9645,-1.9693,-1.9694,-1.9714,-1.9713,-1.9715,-1.9716,-1.9806,-1.9807,-1.9844,0,0,0,-1.9615,-1.9623,-1.9629,-1.9633,-1.9654,-1.9674,-1.9654,-1.9691,-1.9695,-1.9713,-1.9715,-1.9716,-1.9805,-1.9806,-1.9842,-1.9861,0,0,0,-1.9614,-1.9623,-1.9629,-1.9633,-1.9648,-1.9673,-1.9677,-1.9692,-1.9695,-1.9714,-1.9716,-1.9805,-1.9806,-1.9839,-1.9857,-1.9889,0,0,0,-1.9615,-1.966,-1.963,-1.968,-1.9648,-1.9696,-1.9676,-1.9711,-1.9731,-1.9715,-1.9805,-1.9807,-1.9839,-1.9855,-1.9887,-1.9919,-1.9932,0,0,-1.9676,-1.9668,-1.9697,-1.9671,-1.9726,-1.969,-1.975,-1.9762,-1.9757,-1.979,-1.9793,-1.9842,-1.9857,-1.9889,-2.0,-2.0011,0,0,0,-1.9719,-1.974,-1.9753,-1.9774,-1.9784,-1.9796,-1.9798,-1.9802,-1.9831,-1.9776,-1.9861,-1.9869,-1.9888,-1.9903,-1.9912,-1.9928,-1.9813,-1.9813,-1.9813,-1.9816,-1.9808,-1.9856,-1.9853,-1.9873,-1.9875,-1.989,-1.9897,-1.9881,-1.9902,-1.9913,-1.9981,-1.9999,-2.0006,-2.0023,-1.9927,-1.9927,-1.9927,-1.9927,-1.9907,-1.9937,-1.9917,-1.9957,-1.9948,-1.9981,-1.9984,-1.9973,-2.0002,-1.9972,-1.9988,-1.9958,-2.0018,-2.0033,-1.993,-1.9929,-1.9929,-1.9929,-1.9928,-1.9972,-1.9985,-1.999,-2.002,-2.0043,-2.0037,-2.0067,-2.0056,-2.0047,-2.0062,-2.0074,-2.0073,-2.0074,-2.0068,-2.0068,-2.0068,-2.0069,-2.0069,-2.0069,-2.0039,-2.0043,-2.0071,-2.0086,-2.0098,-2.0113,-2.0115,-2.0127,-2.0137,-2.0128,-2.0128,-2.0112,-2.0024,-2.0004,-2.0073,-2.0072,-2.0072,-2.0071,-2.0071,-2.0139,-2.0115,-2.0158,-2.017,-2.0188,-2.0213,-2.0198,-2.0223,-2.0231,-2.0246,-2.0227,-2.0163,-2.0154,-2.0147,-2.013,-2.0227,-2.0227,-2.0227,-2.0227,-2.0197,-2.0191,-2.0233,-2.0254,-2.0272,-2.0264,-2.0313,-2.0314,-2.0312,-2.0317,-2.03,-2.0276,-2.0269,-2.0265,-2.0255,-2.024,-2.0362,-2.0362,-2.0362,-2.0259,-2.0255,-2.0299,-2.0297,-2.031,-2.0322,-2.0367,-2.0392,-2.0384,-2.0368,-2.0321,-2.0315,-2.0276,-2.0263,-2.0249,-2.0234,-2.0206,0,0]}]]